• In Hungary
  • List of Countries
  • For 7 days
  • Water Temperature
  • Satellite Maps
  • Weather Map
  • News
  • Weather Widgets
  • user-avatar
    Login

    Hourly Weather San Gregorio de Polanco

    Today, 16 December, Saturday

    Time Temperature Precipitation Wind Pressure Humidity
    00:00 +24°C° 0 mm 3 mps 750 mmHg 53%
    01:00 +22°C° 0 mm 3 mps 750 mmHg 54%
    02:00 +22°C° 0 mm 3 mps 750 mmHg 55%
    03:00 +22°C° 0 mm 3 mps 750 mmHg 58%
    04:00 +21°C° 0 mm 3 mps 750 mmHg 61%
    05:00 +21°C° 0 mm 4 mps 750 mmHg 64%
    06:00 +23°C° 0 mm 4 mps 750 mmHg 60%
    07:00 +27°C° 0 mm 5 mps 750 mmHg 56%
    08:00 +30°C° 0 mm 5 mps 750 mmHg 52%
    09:00 +33°C° 0 mm 6 mps 750 mmHg 46%
    10:00 +35°C° 0 mm 6 mps 749 mmHg 41%
    11:00 +38°C° 0 mm 6 mps 749 mmHg 35%
    12:00 +39°C° 0 mm 6 mps 748 mmHg 33%
    13:00 +40°C° 0 mm 5 mps 747 mmHg 31%
    14:00 +40°C° 0 mm 5 mps 747 mmHg 29%
    15:00 +39°C° 0 mm 5 mps 746 mmHg 33%
    16:00 +37°C° 0 mm 5 mps 746 mmHg 37%
    17:00 +36°C° 0 mm 5 mps 745 mmHg 40%
    18:00 +34°C° 0 mm 5 mps 745 mmHg 43%
    19:00 +32°C° 0 mm 5 mps 745 mmHg 46%
    20:00 +30°C° 0 mm 5 mps 745 mmHg 49%
    21:00 +30°C° 0 mm 5 mps 744 mmHg 46%
    22:00 +30°C° 0 mm 5 mps 744 mmHg 44%
    23:00 +30°C° 0 mm 5 mps 744 mmHg 42%

    Tomorrow, 17 December, Sunday

    Time Temperature Precipitation Wind Pressure Humidity
    00:00 +30°C° 0 mm 6 mps 743 mmHg 41%
    01:00 +30°C° 0 mm 6 mps 743 mmHg 40%
    02:00 +32°C° 0 mm 7 mps 743 mmHg 40%
    03:00 +29°C° 2.1 mm 7 mps 744 mmHg 55%
    04:00 +27°C° 2.1 mm 7 mps 746 mmHg 71%
    05:00 +24°C° 2.1 mm 7 mps 747 mmHg 86%
    06:00 +23°C° 2.4 mm 6 mps 749 mmHg 88%
    07:00 +23°C° 2.4 mm 5 mps 750 mmHg 90%
    08:00 +24°C° 2.4 mm 3 mps 751 mmHg 92%
    09:00 +25°C° 0.2 mm 5 mps 752 mmHg 85%
    10:00 +24°C° 0.2 mm 6 mps 752 mmHg 78%
    11:00 +26°C° 0.2 mm 7 mps 753 mmHg 71%
    12:00 +26°C° 0 mm 8 mps 753 mmHg 68%
    13:00 +24°C° 0 mm 8 mps 754 mmHg 64%
    14:00 +23°C° 0 mm 8 mps 754 mmHg 60%
    15:00 +23°C° 0 mm 8 mps 755 mmHg 58%
    16:00 +22°C° 0 mm 8 mps 756 mmHg 56%
    17:00 +22°C° 0 mm 8 mps 757 mmHg 55%
    18:00 +20°C° 0 mm 7 mps 757 mmHg 55%
    19:00 +17°C° 0 mm 7 mps 758 mmHg 55%
    20:00 +15°C° 0 mm 6 mps 759 mmHg 54%
    21:00 +14°C° 0 mm 6 mps 759 mmHg 55%
    22:00 +13°C° 0 mm 5 mps 759 mmHg 55%
    23:00 +12°C° 0 mm 5 mps 759 mmHg 55%

    Day after tomorrow, 18 December, Monday

    Time Temperature Precipitation Wind Pressure Humidity
    00:00 +12°C° 0 mm 5 mps 759 mmHg 57%
    01:00 +11°C° 0 mm 4 mps 759 mmHg 59%
    02:00 +10°C° 0 mm 4 mps 759 mmHg 61%
    03:00 +10°C° 0 mm 4 mps 759 mmHg 63%
    04:00 +10°C° 0 mm 4 mps 759 mmHg 65%
    05:00 +10°C° 0 mm 4 mps 759 mmHg 67%
    06:00 +13°C° 0 mm 5 mps 759 mmHg 64%
    07:00 +16°C° 0 mm 5 mps 759 mmHg 60%
    08:00 +19°C° 0 mm 6 mps 759 mmHg 57%
    09:00 +21°C° 0 mm 6 mps 759 mmHg 53%
    10:00 +22°C° 0 mm 6 mps 759 mmHg 49%
    11:00 +25°C° 0 mm 5 mps 759 mmHg 45%
    12:00 +26°C° 0 mm 5 mps 758 mmHg 44%
    13:00 +27°C° 0 mm 5 mps 757 mmHg 44%
    14:00 +27°C° 0 mm 5 mps 757 mmHg 43%
    15:00 +27°C° 0 mm 5 mps 756 mmHg 46%
    16:00 +26°C° 0 mm 6 mps 756 mmHg 50%
    17:00 +24°C° 0 mm 6 mps 756 mmHg 54%
    18:00 +23°C° 0 mm 6 mps 756 mmHg 60%
    19:00 +21°C° 0 mm 6 mps 757 mmHg 65%
    20:00 +19°C° 0 mm 6 mps 757 mmHg 70%
    21:00 +17°C° 0 mm 6 mps 757 mmHg 72%
    22:00 +16°C° 0 mm 6 mps 757 mmHg 75%
    23:00 +15°C° 0 mm 6 mps 757 mmHg 77%

    19 December, Tuesday

    Time Temperature Precipitation Wind Pressure Humidity
    00:00 +15°C° 0 mm 5 mps 757 mmHg 79%
    01:00 +14°C° 0 mm 5 mps 757 mmHg 82%
    02:00 +14°C° 0 mm 5 mps 757 mmHg 85%
    03:00 +14°C° 0 mm 4 mps 757 mmHg 87%
    04:00 +13°C° 0 mm 4 mps 757 mmHg 89%
    05:00 +13°C° 0 mm 4 mps 757 mmHg 91%
    06:00 +15°C° 0 mm 5 mps 757 mmHg 84%
    07:00 +19°C° 0 mm 5 mps 757 mmHg 77%
    08:00 +21°C° 0 mm 6 mps 757 mmHg 69%
    09:00 +22°C° 0 mm 6 mps 757 mmHg 66%
    10:00 +24°C° 0 mm 6 mps 756 mmHg 63%
    11:00 +26°C° 0 mm 6 mps 756 mmHg 59%
    12:00 +27°C° 0 mm 5 mps 756 mmHg 59%
    13:00 +27°C° 0 mm 5 mps 755 mmHg 59%
    14:00 +27°C° 0 mm 5 mps 755 mmHg 58%
    15:00 +26°C° 0.1 mm 4 mps 755 mmHg 64%
    16:00 +26°C° 0.1 mm 4 mps 755 mmHg 70%
    17:00 +25°C° 0.1 mm 3 mps 755 mmHg 76%
    18:00 +22°C° 0.9 mm 4 mps 754 mmHg 80%
    19:00 +21°C° 0.9 mm 5 mps 754 mmHg 84%
    20:00 +20°C° 0.9 mm 6 mps 754 mmHg 88%
    21:00 +20°C° 0.2 mm 6 mps 754 mmHg 89%
    22:00 +19°C° 0.2 mm 6 mps 754 mmHg 90%
    23:00 +19°C° 0.2 mm 5 mps 754 mmHg 91%

    20 December, Wednesday

    Time Temperature Precipitation Wind Pressure Humidity
    00:00 +17°C° 0.1 mm 5 mps 754 mmHg 91%
    01:00 +17°C° 0.1 mm 5 mps 753 mmHg 92%
    02:00 +17°C° 0.1 mm 5 mps 753 mmHg 92%
    03:00 +17°C° 0 mm 5 mps 753 mmHg 93%
    04:00 +18°C° 0 mm 4 mps 753 mmHg 93%
    05:00 +18°C° 0 mm 3 mps 753 mmHg 93%
    06:00 +19°C° 0.9 mm 4 mps 753 mmHg 91%
    07:00 +20°C° 0.9 mm 5 mps 753 mmHg 89%
    08:00 +21°C° 0.9 mm 6 mps 753 mmHg 87%
    09:00 +23°C° 0.3 mm 6 mps 752 mmHg 82%
    10:00 +24°C° 0.3 mm 6 mps 752 mmHg 77%
    11:00 +27°C° 0.3 mm 6 mps 751 mmHg 73%
    12:00 +28°C° 0 mm 5 mps 751 mmHg 69%
    13:00 +29°C° 0 mm 5 mps 750 mmHg 66%
    14:00 +30°C° 0 mm 5 mps 749 mmHg 63%
    15:00 +30°C° 0.1 mm 5 mps 749 mmHg 65%
    16:00 +29°C° 0.1 mm 5 mps 749 mmHg 68%
    17:00 +29°C° 0.1 mm 5 mps 749 mmHg 71%
    18:00 +27°C° 0.1 mm 5 mps 749 mmHg 77%
    19:00 +26°C° 0.1 mm 5 mps 749 mmHg 83%
    20:00 +23°C° 0.1 mm 4 mps 750 mmHg 89%
    21:00 +23°C° 0 mm 4 mps 750 mmHg 91%
    22:00 +22°C° 0 mm 4 mps 750 mmHg 93%
    23:00 +22°C° 0 mm 4 mps 750 mmHg 94%

    21 December, Thursday

    Time Temperature Precipitation Wind Pressure Humidity
    00:00 +22°C° 0 mm 4 mps 750 mmHg 95%
    01:00 +21°C° 0 mm 4 mps 750 mmHg 96%
    02:00 +21°C° 0 mm 3 mps 750 mmHg 97%
    03:00 +21°C° 0 mm 3 mps 750 mmHg 97%
    04:00 +21°C° 0 mm 3 mps 750 mmHg 96%
    05:00 +20°C° 0 mm 4 mps 750 mmHg 96%
    06:00 +22°C° 0 mm 4 mps 750 mmHg 89%
    07:00 +25°C° 0 mm 3 mps 751 mmHg 82%
    08:00 +27°C° 0 mm 3 mps 751 mmHg 75%
    09:00 +28°C° 0 mm 3 mps 751 mmHg 68%
    10:00 +30°C° 0 mm 3 mps 750 mmHg 61%
    11:00 +33°C° 0 mm 3 mps 750 mmHg 55%
    12:00 +34°C° 0 mm 3 mps 750 mmHg 52%
    13:00 +34°C° 0 mm 3 mps 749 mmHg 50%
    14:00 +35°C° 0 mm 2 mps 749 mmHg 48%
    15:00 +34°C° 0.1 mm 3 mps 749 mmHg 50%
    16:00 +34°C° 0.1 mm 3 mps 748 mmHg 53%
    17:00 +34°C° 0.1 mm 3 mps 748 mmHg 56%
    18:00 +31°C° 0.2 mm 3 mps 748 mmHg 63%
    19:00 +29°C° 0.2 mm 4 mps 749 mmHg 70%
    20:00 +27°C° 0.2 mm 5 mps 749 mmHg 77%
    21:00 +26°C° 0.2 mm 5 mps 749 mmHg 81%
    22:00 +25°C° 0.2 mm 5 mps 750 mmHg 84%
    23:00 +23°C° 0.2 mm 5 mps 750 mmHg 87%
    Show more